Home > Time Zones > World Clock > Weather > Spain > Palma > Past weeks

Flag for Spain Weather past 2 weeks in Palma, Majorca, Spain

Now
79 °F

Sunny.


Feels Like: 79 °F
Forecast: 57 / 78 °F
Wind: 10 mph from Southwest

Location: Palma De Mallorca / Son San Juan

Current Time: Oct 25, 2014 at 5:40:00 PM

Latest Report: Oct 25, 2014 at 5:00 PM


Visibility: 10 mi

Pressure: 30.09 "Hg

Humidity: 42%

Dew point: 54 °F

Location of PalmaLocation

Historic Weather in Palma — Graph

°F

Palma temperature yesterday

Maximum temperature yesterday: 79 °F (at 4:00 PM)
Minimum temperature yesterday: 48 °F (at 7:30 AM)
Average temperature yesterday: 64 °F

Past Weeks' High & Low Weather Summary

 TemperatureHumidityPressure
High90 °F (Oct 19, 1:00 PM)100% (Oct 11, 2:30 AM)30.24 "Hg (Oct 11, 2:30 AM)
Low48 °F (Oct 24, 7:30 AM)26% (Oct 23, 4:30 PM)29.74 "Hg (Oct 14, 4:00 PM)
Average70 °F74%30.02 "Hg
* Reported Oct 10 4:00 PM — Oct 25 4:30 PM, Palma, Weather by CustomWeather, © 2014

Note: Actual official high and low records may vary slightly from our data, if they occured in-between our weather recording intervals... More about our weather records

Advertising

Palma weather history for previous 24 hours

 ConditionsComfort  
Time TempWeatherWind HumidityBarometerVisibility
4:30 PM
Oct 25
81 °FPassing clouds.12 mph39%30.09 "HgN/A
4:00 PM81 °FPassing clouds.10 mph45%30.09 "HgN/A
3:30 PM81 °FPassing clouds.9 mph45%30.09 "HgN/A
3:00 PM79 °FSunny.9 mph48%30.09 "Hg10 mi
2:30 PM81 °FPassing clouds.9 mph51%30.09 "HgN/A
2:00 PM81 °FPassing clouds.9 mph45%30.09 "HgN/A
1:30 PM81 °FPassing clouds.8 mph34%30.12 "HgN/A
1:00 PM81 °FPassing clouds.8 mph39%30.12 "HgN/A
12:30 PM81 °FSunny.2 mph37%30.12 "Hg10 mi
12:00 PM79 °FSunny.No wind30%30.12 "Hg10 mi
11:30 AM79 °FSunny.No wind32%30.12 "Hg10 mi
11:00 AM75 °FSunny.No wind41%30.09 "Hg10 mi
10:30 AM72 °FSunny.No wind44%30.09 "Hg10 mi
10:00 AM66 °FPassing clouds.No wind60%30.09 "HgN/A
9:30 AM61 °FPassing clouds.No wind63%30.09 "HgN/A
9:00 AM57 °FClear.No wind67%30.09 "Hg10 mi
8:30 AM54 °FClear.1 mph77%30.07 "Hg10 mi
8:00 AM52 °FClear.1 mph82%30.07 "Hg10 mi
7:30 AM52 °FClear.No wind82%30.07 "Hg10 mi
7:00 AM54 °FClear.1 mph77%30.07 "Hg10 mi
6:30 AM52 °FClear.2 mph88%30.07 "Hg10 mi
5:30 AM52 °FClear.3 mph88%30.04 "Hg10 mi
5:00 AM54 °FClear.No wind82%30.04 "Hg10 mi
4:30 AM55 °FClear.1 mph77%30.04 "Hg10 mi
4:00 AM54 °FClear.2 mph82%30.04 "Hg10 mi
3:30 AM54 °FClear.No wind82%30.04 "Hg10 mi
3:00 AM54 °FClear.1 mph82%30.04 "Hg10 mi
2:30 AM54 °FClear.1 mph82%30.04 "Hg10 mi
2:00 AM54 °FClear.No wind88%30.04 "Hg10 mi
1:30 AM55 °FClear.No wind88%30.07 "Hg10 mi
1:00 AM55 °FClear.2 mph88%30.07 "Hg10 mi
12:30 AM57 °FClear.2 mph88%30.07 "Hg10 mi
12:00 AM57 °FClear.2 mph88%30.07 "Hg10 mi
11:30 PM
Oct 24
57 °FClear.No wind94%30.07 "Hg10 mi
11:00 PM59 °FClear.No wind88%30.07 "Hg10 mi
10:30 PM59 °FClear.No wind88%30.04 "Hg10 mi
10:00 PM63 °FClear.No wind83%30.04 "Hg10 mi
9:30 PM63 °FClear.No wind83%30.04 "Hg10 mi
9:00 PM66 °FClear.3 mph68%30.04 "Hg10 mi
8:30 PM70 °FClear.5 mph60%30.04 "Hg10 mi
8:00 PM72 °FClear.7 mph61%30.01 "Hg10 mi
7:30 PM73 °FSunny.6 mph61%30.01 "Hg10 mi
7:00 PM73 °FSunny.7 mph61%30.01 "Hg10 mi
6:30 PM75 °FPassing clouds.9 mph61%30.01 "HgN/A
6:00 PM75 °FPassing clouds.12 mph69%30.01 "HgN/A
5:30 PM75 °FPassing clouds.13 mph61%30.01 "HgN/A
5:00 PM77 °FPassing clouds.13 mph57%30.01 "HgN/A
Weather by CustomWeather, © 2014

See weather overviewHow to use our weather pages